Regional Weather Roundup
Issued by NWS

Home | Current Version | Previous Version | Graphics & Text | Print | Product List | Glossary On
Versions: 1 2 3 4 5 6 7 8 9 10 11 12 13 14 15 16 17 18 19 20 21 22 23 24 25 26 27 28 29 30 31 32 33 34 35 36 37 38 39 40 41 42 43 44 45 46 47 48 49 50
000
ASUS43 KLOT 201906
RWRIL

ILLINOIS REGIONAL WEATHER ROUNDUP
NATIONAL WEATHER SERVICE CHICAGO/ROMEOVILLE IL
100 PM CST SAT DEC 20 2014

NOTE: "FAIR" INDICATES FEW OR NO CLOUDS BELOW 12,000 FEET WITH NO
SIGNIFICANT WEATHER AND/OR OBSTRUCTIONS TO VISIBILITY.

* THESE STATIONS ARE NOT UNDER NWS QUALITY CONTROL. THEY ALSO MAY NOT
  REPORT WEATHER SUCH AS PRECIPITATION OR FOG.

ILZ001-002-007-009-015-016-024-202000-
NORTHWEST ILLINOIS

CITY           SKY/WX    TMP DP  RH WIND       PRES   REMARKS
MOLINE         CLOUDY    34  26  72 SE7       30.22F WCI  28
STERLING*      CLOUDY    34  25  69 SE7       30.23F WCI  28
SAVANNA*       CLOUDY    33  26  76 SE7       30.23F WCI  26
$$

ILZ003-004-008-010-011-017-018-202000-
NORTH CENTRAL ILLINOIS

CITY           SKY/WX    TMP DP  RH WIND       PRES   REMARKS
ROCKFORD       LGT SNOW  30  26  85 S9        30.26F FOG     WCI  22
FREEPORT*      CLOUDY    30  25  81 SE7       30.25F WCI  23
ROCHELLE*      CLOUDY    30  26  86 S6        30.25F FOG     WCI  24
DE KALB*       CLOUDY    29  24  83 S7        30.24F WCI  22
PERU*          CLOUDY    32  28  83 S3        30.25F
$$

ILZ005-006-012>014-019>023-202000-
NORTHEAST ILLINOIS

CITY           SKY/WX    TMP DP  RH WIND       PRES   REMARKS
CHICAGO-OHARE  CLOUDY    32  23  69 W8        30.24F WCI  25
CHICAGO-MIDWAY FLURRIES  34  26  72 SW8       30.25F WCI  27
AURORA         CLOUDY    32  25  75 S6        30.25F HAZE    WCI  26
LANSING*       CLOUDY    33  26  75 SW8       30.26F WCI  26
JOLIET*        CLOUDY    32  24  72 SW5       30.26F WCI  28
WAUKEGAN       CLOUDY    31  23  72 SW7       30.24F WCI  24
DUPAGE AIRPORT CLOUDY    32  24  72 SW8       30.24F WCI  25
KANKAKEE*      CLOUDY    34  27  76 S6        30.27S WCI  29
WHEELING       CLOUDY    32  23  69 SW8       30.26F WCI  25
MORRIS*        CLOUDY    32  28  85 SW3       30.25F
ROMEOVILLE*    CLOUDY    33  25  74 SW7       30.26S WCI  26
NORTHERLY ISL    N/A     33  25  72 SW5         N/A  WCI  29
$$

LMZ740>746-202000-
SOUTHERN LAKE MICHIGAN

STATION/POSITION SKY/WX   TEMP    WIND        PRES    VSBY  WAVE
                          AIR SEA DIR/SP/G                  HT/PER
                          (F)     (DEG/KT/KT) (MB)    (MI)  (FT/S)
WAUKEGAN HARBOR            31     230/  5/  8   N/A
HARRISON CRIB              32     210/ 10/ 12   N/A
BURNHAM HARBOR             33     250/  6/ 10   N/A
CALUMET HARBOR             33     200/  5/  6 1023.2F
$$

ILZ025>027-034>036-040-047-049-050-058-095>099-202000-
WEST-CENTRAL ILLINOIS

CITY           SKY/WX    TMP DP  RH WIND       PRES   REMARKS
QUINCY         CLOUDY    36  32  85 S8        30.20F FOG     WCI  30
GALESBURG*     CLOUDY    33  29  84 SE6       30.22F WCI  28
MACOMB*        CLOUDY    35  31  86 SE6       30.23F FOG     WCI  30
JACKSONVILLE*  CLOUDY    40  33  75 S5        30.23S
PITTSFIELD*    CLOUDY    37  33  84 S5        30.23S WCI  34
$$

ILZ028>032-037-038-041>044-048-051>054-059>061-202000-
CENTRAL ILLINOIS

CITY           SKY/WX    TMP DP  RH WIND       PRES   REMARKS
PONTIAC        CLOUDY    34  29  81 S6        30.26F WCI  29
BLOOMINGTON    CLOUDY    33  28  82 S8        30.25F WCI  26
DECATUR        CLOUDY    35  28  75 S7        30.25F WCI  29
PEORIA         CLOUDY    36  26  67 S7        30.24F WCI  30
LACON*         CLOUDY    34  25  71 S6        30.24F WCI  28
LINCOLN*       CLOUDY    36  29  76 S6        30.26F WCI  31
SPRINGFIELD    CLOUDY    38  29  70 S7        30.24F WCI  33
TAYLORVILLE    CLOUDY    36  30  80 SE7       30.25F WCI  30
$$

ILZ033-039-045-046-055>057-062-063-202000-
EAST-CENTRAL ILLINOIS

CITY           SKY/WX    TMP DP  RH WIND       PRES   REMARKS
CHAMPAIGN      CLOUDY    34  26  72 S9        30.25F WCI  27
DANVILLE*      CLOUDY    34  26  72 S7        30.23F WCI  28
RANTOUL*       CLOUDY    35  28  78 S5        30.25F WCI  31
MATTOON        CLOUDY    34  26  72 S6        30.24F WCI  29
PARIS*         CLOUDY    34  28  77 CALM      30.27F
$$

ILZ079-100>102-202000-
SOUTHWEST ILLINOIS

CITY           SKY/WX    TMP DP  RH WIND       PRES   REMARKS
BELLEVILLE     CLOUDY    40  33  75 E5        30.24F
CAHOKIA*       CLOUDY    41  33  73 CALM      30.24F
SPARTA*        CLOUDY    40  32  75 CALM      30.25F
$$

ILZ064>066-069>071-074>076-080>082-084>086-088>090-092>094-202000-
SOUTH-CENTRAL ILLINOIS

CITY           SKY/WX    TMP DP  RH WIND       PRES   REMARKS
CARBONDALE     CLOUDY    41  29  62 SE6       30.26F
CAIRO*         CLOUDY    43  31  61 CALM      30.26F
EFFINGHAM*     CLOUDY    36  25  65 E5        30.27F WCI  32
MARION         CLOUDY    41  30  65 E7        30.27F
MT. VERNON     CLOUDY    39  28  65 SE7       30.27F WCI  34
CENTRALIA*     CLOUDY    38  28  66 SE5       30.25F WCI  35
SALEM*         SUNNY     41  28  60 S3        30.25F
METROPOLIS*    PTSUNNY   42  31  64 CALM      30.25F
$$

ILZ067-068-072-073-078-083-087-091-202000-
SOUTHEAST ILLINOIS

CITY           SKY/WX    TMP DP  RH WIND       PRES   REMARKS
LAWRENCEVILLE  CLOUDY    35  27  72 E5        30.28F WCI  31
FLORA*         SUNNY     35  28  73 S3        30.27F
FAIRFIELD*     CLOUDY    36  28  73 CALM      30.27S
HARRISBURG*    CLOUDY    38  29  68 CALM      30.28F
ROBINSON*      CLOUDY    36  27  70 NE3       30.28F
CARMI*         CLOUDY    38  29  70 CALM      30.27F
$$

ABBREVIATIONS USED IN REMARKS
   TC - TEMPERATURE IN CELSIUS
  WCI - WIND CHILL INDEX
   HX - HEAT INDEX
  VSB - VISIBILITY
$$



USA.gov is the U.S. government's official web portal to all federal, state and local government web resources and services.